Powrót do katalogu

OSCAR 30

AktywnyKrótkofalarstwoPO
NORAD 15935·PAYLOAD·🇺🇸 United States

Wystrzelony Aug 3, 1985 z Vandenberg Space Force Base

Loading…

Następne Przeloty (najbliższe 24 godziny)

TLE

ŚwieżeSource: Space-Track

Epoka: Sep 14, 2026, 13:07 UTC

1 15935U 85066A   26257.54695815  .00000053  00000-0  79182-4 0  9992
2 15935  90.1461 104.1050 0168754  26.0460 352.1939 13.36123330  1284

Śledź OSCAR 30 w czasie rzeczywistym z AllMySat

Download on the App Store